Time,TemperatureF,DewpointF,PressureIn,WindDirection,WindDirectionDegrees,WindSpeedMPH,WindSpeedGustMPH,Humidity,HourlyPrecipIn,Conditions,Clouds,dailyrainin,SoftwareType,DateUTC
2013-05-31 00:02:00,64.0,59.0,29.55,East,98,0.0,5.0,84,0.00,,,0.11,,2013-05-31 05:02:00,
2013-05-31 00:12:00,64.0,59.0,29.56,SE,142,0.0,2.0,84,0.00,,,0.10,,2013-05-31 05:12:00,
2013-05-31 00:22:00,64.0,59.0,29.56,SE,142,0.0,2.0,84,0.00,,,0.10,,2013-05-31 05:22:00,
2013-05-31 00:31:00,64.0,59.0,29.56,SSE,148,1.0,6.0,85,0.00,,,0.09,,2013-05-31 05:31:00,
2013-05-31 00:42:00,64.0,59.0,29.56,SSE,148,1.0,6.0,85,0.00,,,0.09,,2013-05-31 05:42:00,
2013-05-31 00:52:00,64.0,59.0,29.56,SSE,159,0.0,5.0,85,0.00,,,0.09,,2013-05-31 05:52:00,
2013-05-31 01:02:00,64.0,59.0,29.57,South,184,0.0,0.0,85,0.00,,,0.08,,2013-05-31 06:02:00,
2013-05-31 01:12:00,64.0,59.0,29.57,South,184,0.0,0.0,85,0.00,,,0.08,,2013-05-31 06:12:00,
2013-05-31 01:21:00,64.0,59.0,29.57,SE,138,0.0,3.0,85,0.00,,,0.08,,2013-05-31 06:21:00,
2013-05-31 01:31:00,64.0,59.0,29.57,East,82,0.0,2.0,85,0.00,,,0.07,,2013-05-31 06:31:00,
2013-05-31 01:41:00,64.0,59.0,29.57,ENE,58,0.0,2.0,85,0.00,,,0.05,,2013-05-31 06:41:00,
2013-05-31 01:51:00,64.0,59.0,29.57,ENE,58,0.0,2.0,85,0.00,,,0.05,,2013-05-31 06:51:00,
2013-05-31 02:02:00,64.0,59.0,29.57,SE,143,0.0,2.0,85,0.00,,,0.04,,2013-05-31 07:02:00,
2013-05-31 02:11:00,64.0,59.0,29.56,South,169,0.0,2.0,84,0.00,,,0.04,,2013-05-31 07:11:00,
2013-05-31 02:21:00,64.0,59.0,29.56,South,169,0.0,2.0,84,0.00,,,0.04,,2013-05-31 07:21:00,
2013-05-31 02:32:00,64.0,59.0,29.55,East,98,0.0,2.0,84,0.00,,,0.04,,2013-05-31 07:32:00,
2013-05-31 02:41:00,64.0,59.0,29.55,East,98,0.0,2.0,84,0.00,,,0.04,,2013-05-31 07:41:00,
2013-05-31 02:52:00,64.0,59.0,29.55,SE,146,0.0,3.0,84,0.00,,,0.04,,2013-05-31 07:52:00,
2013-05-31 03:02:00,63.0,58.0,29.55,SE,134,0.0,2.0,85,0.00,,,0.04,,2013-05-31 08:02:00,
2013-05-31 03:11:00,63.0,58.0,29.55,SE,134,0.0,2.0,85,0.00,,,0.04,,2013-05-31 08:11:00,
2013-05-31 03:21:00,63.0,58.0,29.55,SE,141,0.0,3.0,85,0.00,,,0.02,,2013-05-31 08:21:00,
2013-05-31 03:31:00,63.0,58.0,29.55,SE,126,0.0,1.0,85,0.00,,,0.02,,2013-05-31 08:31:00,
2013-05-31 03:42:00,63.0,58.0,29.55,SE,126,0.0,1.0,85,0.00,,,0.02,,2013-05-31 08:42:00,
2013-05-31 03:51:00,63.0,58.0,29.55,SSE,149,0.0,1.0,85,0.00,,,0.02,,2013-05-31 08:51:00,
2013-05-31 04:01:00,63.0,58.0,29.55,ENE,60,0.0,1.0,85,0.00,,,0.02,,2013-05-31 09:01:00,
2013-05-31 04:11:00,63.0,58.0,29.55,ENE,60,0.0,1.0,85,0.00,,,0.02,,2013-05-31 09:11:00,
2013-05-31 04:21:00,63.0,58.0,29.55,East,87,0.0,1.0,85,0.00,,,0.02,,2013-05-31 09:21:00,
2013-05-31 04:32:00,63.0,58.0,29.55,SE,137,0.0,1.0,85,0.00,,,0.02,,2013-05-31 09:32:00,
2013-05-31 04:43:00,63.0,58.0,29.55,SE,137,0.0,1.0,85,0.00,,,0.02,,2013-05-31 09:43:00,
2013-05-31 04:53:00,63.0,59.0,29.55,South,174,0.0,1.0,86,0.00,,,0.02,,2013-05-31 09:53:00,
2013-05-31 05:02:00,62.0,58.0,29.55,East,100,0.0,1.0,86,0.00,,,0.02,,2013-05-31 10:02:00,
2013-05-31 05:12:00,62.0,58.0,29.54,SE,133,1.0,3.0,87,0.00,,,0.02,,2013-05-31 10:12:00,
2013-05-31 05:22:00,62.0,58.0,29.54,SE,133,1.0,3.0,87,0.00,,,0.02,,2013-05-31 10:22:00,
2013-05-31 05:33:00,62.0,58.0,29.54,ESE,115,0.0,3.0,87,0.00,,,0.02,,2013-05-31 10:33:00,
2013-05-31 05:42:00,62.0,58.0,29.54,ESE,115,0.0,3.0,87,0.00,,,0.02,,2013-05-31 10:42:00,
2013-05-31 05:52:00,62.0,58.0,29.54,ESE,113,1.0,5.0,87,0.00,,,0.02,,2013-05-31 10:52:00,
2013-05-31 06:02:00,63.0,59.0,29.54,ESE,122,1.0,5.0,87,0.00,,,0.02,,2013-05-31 11:02:00,
2013-05-31 06:11:00,63.0,59.0,29.54,ESE,122,1.0,5.0,87,0.00,,,0.02,,2013-05-31 11:11:00,
2013-05-31 06:22:00,63.0,59.0,29.55,South,178,1.0,5.0,86,0.00,,,0.02,,2013-05-31 11:22:00,
2013-05-31 06:32:00,63.0,59.0,29.57,ESE,109,0.0,3.0,87,0.00,,,0.02,,2013-05-31 11:32:00,
2013-05-31 06:42:00,63.0,59.0,29.57,ESE,109,0.0,3.0,87,0.00,,,0.02,,2013-05-31 11:42:00,
2013-05-31 06:52:00,62.0,58.0,29.56,SSE,149,0.0,3.0,88,0.01,,,0.03,,2013-05-31 11:52:00,
2013-05-31 07:01:00,62.0,58.0,29.57,NNW,340,1.0,3.0,88,0.01,,,0.03,,2013-05-31 12:01:00,
2013-05-31 07:11:00,62.0,58.0,29.57,NNW,340,1.0,3.0,88,0.01,,,0.03,,2013-05-31 12:11:00,
2013-05-31 07:21:00,62.0,58.0,29.57,SSE,163,0.0,1.0,88,0.01,,,0.03,,2013-05-31 12:21:00,
2013-05-31 07:31:00,62.0,58.0,29.57,SE,124,0.0,3.0,88,0.01,,,0.03,,2013-05-31 12:31:00,
2013-05-31 07:41:00,62.0,58.0,29.57,SE,124,0.0,3.0,88,0.01,,,0.03,,2013-05-31 12:41:00,
2013-05-31 07:52:00,62.0,58.0,29.56,ESE,120,0.0,2.0,88,0.00,,,0.03,,2013-05-31 12:52:00,
2013-05-31 08:01:00,62.0,58.0,29.56,SE,130,0.0,3.0,88,0.00,,,0.03,,2013-05-31 13:01:00,
2013-05-31 08:11:00,62.0,58.0,29.56,SE,130,0.0,3.0,88,0.00,,,0.03,,2013-05-31 13:11:00,
2013-05-31 08:21:00,63.0,59.0,29.56,ESE,114,0.0,3.0,87,0.00,,,0.03,,2013-05-31 13:21:00,
2013-05-31 08:32:00,64.0,60.0,29.56,South,175,0.0,3.0,87,0.00,,,0.03,,2013-05-31 13:32:00,
2013-05-31 08:42:00,64.0,60.0,29.56,South,175,0.0,3.0,87,0.00,,,0.03,,2013-05-31 13:42:00,
2013-05-31 08:52:00,64.0,59.0,29.56,SE,128,1.0,2.0,85,0.00,,,0.03,,2013-05-31 13:52:00,
2013-05-31 09:02:00,66.0,60.0,29.57,SSE,161,1.0,5.0,82,0.00,,,0.03,,2013-05-31 14:02:00,
2013-05-31 09:11:00,66.0,60.0,29.57,SSE,161,1.0,5.0,82,0.00,,,0.03,,2013-05-31 14:11:00,
2013-05-31 09:21:00,67.0,60.0,29.56,ENE,61,1.0,3.0,79,0.00,,,0.03,,2013-05-31 14:21:00,
2013-05-31 09:32:00,68.0,60.0,29.56,SSW,192,1.0,6.0,76,0.00,,,0.03,,2013-05-31 14:32:00,
2013-05-31 09:41:00,68.0,60.0,29.56,SSW,192,1.0,6.0,76,0.00,,,0.03,,2013-05-31 14:41:00,
2013-05-31 09:52:00,68.0,59.0,29.56,SE,141,1.0,5.0,74,0.00,,,0.03,,2013-05-31 14:52:00,
2013-05-31 10:01:00,69.0,60.0,29.57,East,97,1.0,7.0,73,0.00,,,0.03,,2013-05-31 15:01:00,
2013-05-31 10:11:00,69.0,60.0,29.57,East,97,1.0,7.0,73,0.00,,,0.03,,2013-05-31 15:11:00,
2013-05-31 10:21:00,71.0,60.0,29.57,SSE,153,2.0,7.0,68,0.00,,,0.03,,2013-05-31 15:21:00,
2013-05-31 10:33:00,73.0,61.0,29.57,SSE,156,2.0,10.0,65,0.00,,,0.03,,2013-05-31 15:33:00,
2013-05-31 10:43:00,73.0,61.0,29.57,SSE,156,2.0,10.0,65,0.00,,,0.03,,2013-05-31 15:43:00,
2013-05-31 10:53:00,73.0,60.0,29.56,SE,131,1.0,3.0,64,0.00,,,0.03,,2013-05-31 15:53:00,
2013-05-31 11:03:00,75.0,61.0,29.56,SW,221,1.0,3.0,62,0.00,,,0.03,,2013-05-31 16:03:00,
2013-05-31 11:12:00,75.0,61.0,29.56,South,176,1.0,5.0,62,0.00,,,0.03,,2013-05-31 16:12:00,
2013-05-31 11:22:00,75.0,61.0,29.56,South,176,1.0,5.0,62,0.00,,,0.03,,2013-05-31 16:22:00,
2013-05-31 11:33:00,76.0,61.0,29.56,ENE,65,1.0,5.0,59,0.00,,,0.03,,2013-05-31 16:33:00,
2013-05-31 11:42:00,76.0,61.0,29.56,ENE,65,1.0,5.0,59,0.00,,,0.03,,2013-05-31 16:42:00,
2013-05-31 11:52:00,76.0,62.0,29.56,WNW,294,0.0,5.0,61,0.00,,,0.03,,2013-05-31 16:52:00,
2013-05-31 12:02:00,77.0,62.0,29.56,East,84,1.0,3.0,59,0.00,,,0.03,,2013-05-31 17:02:00,
2013-05-31 12:12:00,77.0,62.0,29.56,East,84,1.0,3.0,59,0.00,,,0.03,,2013-05-31 17:12:00,
2013-05-31 12:22:00,78.0,61.0,29.56,SE,127,1.0,9.0,56,0.00,,,0.03,,2013-05-31 17:22:00,
2013-05-31 12:32:00,79.0,61.0,29.56,SSE,159,1.0,5.0,55,0.00,,,0.03,,2013-05-31 17:32:00,
2013-05-31 12:42:00,79.0,61.0,29.56,SSE,159,1.0,5.0,55,0.00,,,0.03,,2013-05-31 17:42:00,
2013-05-31 12:52:00,79.0,61.0,29.55,East,96,1.0,6.0,54,0.00,,,0.03,,2013-05-31 17:52:00,
2013-05-31 13:01:00,79.0,59.0,29.55,SSE,165,3.0,8.0,51,0.00,,,0.03,,2013-05-31 18:01:00,
2013-05-31 13:11:00,79.0,59.0,29.55,SSE,165,3.0,8.0,51,0.00,,,0.03,,2013-05-31 18:11:00,
2013-05-31 13:22:00,79.0,60.0,29.55,SW,230,1.0,7.0,52,0.00,,,0.03,,2013-05-31 18:22:00,
2013-05-31 13:31:00,81.0,59.0,29.56,SE,128,3.0,16.0,48,0.00,,,0.03,,2013-05-31 18:31:00,
2013-05-31 13:42:00,81.0,59.0,29.56,SE,128,3.0,16.0,48,0.00,,,0.03,,2013-05-31 18:42:00,
2013-05-31 13:52:00,79.0,59.0,29.56,East,90,2.0,7.0,51,0.00,,,0.03,,2013-05-31 18:52:00,
2013-05-31 14:02:00,80.0,60.0,29.55,East,85,1.0,5.0,51,0.00,,,0.03,,2013-05-31 19:02:00,
2013-05-31 14:11:00,80.0,60.0,29.55,East,85,1.0,5.0,51,0.00,,,0.03,,2013-05-31 19:11:00,
2013-05-31 14:22:00,81.0,60.0,29.54,SSW,201,1.0,7.0,49,0.00,,,0.03,,2013-05-31 19:22:00,
2013-05-31 14:32:00,81.0,59.0,29.54,ESE,107,2.0,7.0,47,0.00,,,0.03,,2013-05-31 19:32:00,
2013-05-31 14:42:00,81.0,59.0,29.52,ESE,121,0.0,2.0,47,0.00,,,0.03,,2013-05-31 19:42:00,
2013-05-31 14:52:00,81.0,59.0,29.52,ESE,121,0.0,2.0,47,0.00,,,0.03,,2013-05-31 19:52:00,
2013-05-31 15:01:00,80.0,59.0,29.52,SSE,161,2.0,8.0,49,0.00,,,0.03,,2013-05-31 20:01:00,
2013-05-31 15:11:00,80.0,59.0,29.52,SSE,161,2.0,8.0,49,0.00,,,0.03,,2013-05-31 20:11:00,
2013-05-31 15:22:00,80.0,59.0,29.53,ESE,119,1.0,6.0,49,0.00,,,0.03,,2013-05-31 20:22:00,
2013-05-31 15:31:00,79.0,60.0,29.52,SE,140,1.0,10.0,52,0.00,,,0.03,,2013-05-31 20:31:00,
2013-05-31 15:41:00,79.0,60.0,29.52,SE,140,1.0,10.0,52,0.00,,,0.03,,2013-05-31 20:41:00,
2013-05-31 15:51:00,79.0,59.0,29.52,SE,124,2.0,6.0,50,0.00,,,0.03,,2013-05-31 20:51:00,
2013-05-31 16:01:00,78.0,59.0,29.52,SSW,205,1.0,5.0,52,0.00,,,0.03,,2013-05-31 21:01:00,
2013-05-31 16:11:00,78.0,59.0,29.52,SSW,205,1.0,5.0,52,0.00,,,0.03,,2013-05-31 21:11:00,
2013-05-31 16:22:00,77.0,59.0,29.52,North,349,0.0,3.0,53,0.00,,,0.03,,2013-05-31 21:22:00,
2013-05-31 16:32:00,62.0,53.0,29.57,WNW,287,5.0,9.0,73,0.10,,,0.13,,2013-05-31 21:32:00,
2013-05-31 16:42:00,59.0,55.0,29.54,East,85,3.0,10.0,88,0.33,,,0.36,,2013-05-31 21:42:00,
2013-05-31 16:53:00,59.0,55.0,29.54,East,85,3.0,10.0,88,0.33,,,0.36,,2013-05-31 21:53:00,
2013-05-31 17:02:00,61.0,58.0,29.50,ESE,115,0.0,3.0,89,0.33,,,0.36,,2013-05-31 22:02:00,
2013-05-31 17:12:00,61.0,58.0,29.50,ESE,115,0.0,3.0,89,0.33,,,0.36,,2013-05-31 22:12:00,
2013-05-31 17:22:00,66.0,63.0,29.51,SSE,157,0.0,1.0,89,0.33,,,0.36,,2013-05-31 22:22:00,
2013-05-31 17:33:00,69.0,63.0,29.52,SSE,153,0.0,3.0,82,0.23,,,0.36,,2013-05-31 22:33:00,
2013-05-31 17:42:00,69.0,63.0,29.51,South,184,0.0,1.0,82,0.03,,,0.36,,2013-05-31 22:42:00,
2013-05-31 17:53:00,69.0,63.0,29.51,South,184,0.0,1.0,82,0.03,,,0.36,,2013-05-31 22:53:00,
2013-05-31 18:02:00,70.0,64.0,29.50,SSE,153,0.0,1.0,80,0.00,,,0.36,,2013-05-31 23:02:00,
2013-05-31 18:12:00,70.0,64.0,29.50,SSE,153,0.0,1.0,80,0.00,,,0.36,,2013-05-31 23:12:00,
2013-05-31 18:21:00,71.0,63.0,29.49,SE,146,0.0,1.0,75,0.00,,,0.36,,2013-05-31 23:21:00,
2013-05-31 18:32:00,71.0,63.0,29.49,South,169,0.0,1.0,75,0.00,,,0.36,,2013-05-31 23:32:00,
2013-05-31 18:42:00,72.0,63.0,29.49,SE,127,0.0,1.0,74,0.00,,,0.36,,2013-05-31 23:42:00,
2013-05-31 18:52:00,72.0,63.0,29.49,SE,127,0.0,1.0,74,0.00,,,0.36,,2013-05-31 23:52:00,
2013-05-31 19:01:00,72.0,63.0,29.48,ESE,111,0.0,1.0,73,0.00,,,0.36,,2013-06-01 00:01:00,
2013-05-31 19:11:00,70.0,62.0,29.48,ESE,111,0.0,2.0,77,0.00,,,0.36,,2013-06-01 00:11:00,
2013-05-31 19:22:00,70.0,62.0,29.48,ESE,111,0.0,2.0,77,0.00,,,0.36,,2013-06-01 00:22:00,
2013-05-31 19:32:00,70.0,63.0,29.50,WSW,255,2.0,5.0,78,0.02,,,0.38,,2013-06-01 00:32:00,
2013-05-31 19:42:00,66.0,60.0,29.52,SW,228,1.0,6.0,82,0.06,,,0.42,,2013-06-01 00:42:00,
2013-05-31 19:51:00,66.0,60.0,29.52,SW,228,1.0,6.0,82,0.06,,,0.42,,2013-06-01 00:51:00,
2013-05-31 20:01:00,65.0,60.0,29.52,ESE,116,0.0,0.0,84,0.07,,,0.43,,2013-06-01 01:01:00,
2013-05-31 20:11:00,64.0,60.0,29.52,SE,132,0.0,1.0,88,0.07,,,0.43,,2013-06-01 01:11:00,
2013-05-31 20:21:00,64.0,60.0,29.52,SE,132,0.0,1.0,88,0.07,,,0.43,,2013-06-01 01:21:00,
2013-05-31 20:32:00,65.0,61.0,29.52,SE,131,0.0,1.0,86,0.05,,,0.42,,2013-06-01 01:32:00,
2013-05-31 20:42:00,65.0,60.0,29.52,South,190,0.0,1.0,84,0.01,,,0.42,,2013-06-01 01:42:00,
2013-05-31 20:52:00,65.0,60.0,29.52,South,190,0.0,1.0,84,0.01,,,0.42,,2013-06-01 01:52:00,
2013-05-31 21:01:00,65.0,59.0,29.52,SE,134,0.0,1.0,81,0.00,,,0.41,,2013-06-01 02:01:00,
2013-05-31 21:11:00,64.0,57.0,29.52,SE,127,0.0,1.0,79,0.00,,,0.41,,2013-06-01 02:11:00,
2013-05-31 21:21:00,64.0,57.0,29.52,SE,127,0.0,1.0,79,0.00,,,0.41,,2013-06-01 02:21:00,
2013-05-31 21:32:00,63.0,57.0,29.52,SE,128,0.0,0.0,82,0.00,,,0.41,,2013-06-01 02:32:00,
2013-05-31 21:42:00,63.0,58.0,29.52,SE,132,0.0,0.0,83,0.00,,,0.41,,2013-06-01 02:42:00,
2013-05-31 21:52:00,63.0,58.0,29.52,SE,132,0.0,0.0,83,0.00,,,0.41,,2013-06-01 02:52:00,
2013-05-31 22:01:00,62.0,57.0,29.51,SE,132,0.0,0.0,85,0.00,,,0.41,,2013-06-01 03:01:00,
2013-05-31 22:11:00,62.0,58.0,29.55,West,261,0.0,3.0,87,0.00,,,0.41,,2013-06-01 03:11:00,
2013-05-31 22:21:00,62.0,58.0,29.55,West,261,0.0,3.0,87,0.00,,,0.41,,2013-06-01 03:21:00,
2013-05-31 22:33:00,65.0,58.0,29.56,SW,236,1.0,3.0,79,0.00,,,0.41,,2013-06-01 03:33:00,
2013-05-31 22:43:00,64.0,54.0,29.55,SW,231,1.0,3.0,70,0.01,,,0.42,,2013-06-01 03:43:00,
2013-05-31 22:53:00,64.0,54.0,29.55,SW,231,1.0,3.0,70,0.01,,,0.42,,2013-06-01 03:53:00,
2013-05-31 23:02:00,59.0,54.0,29.56,ESE,117,0.0,0.0,85,0.16,,,0.57,,2013-06-01 04:02:00,
2013-05-31 23:12:00,58.0,54.0,29.55,WSW,247,0.0,2.0,88,0.18,,,0.59,,2013-06-01 04:12:00,
2013-05-31 23:23:00,58.0,54.0,29.55,WSW,247,0.0,2.0,88,0.18,,,0.59,,2013-06-01 04:23:00,
2013-05-31 23:33:00,58.0,55.0,29.54,SW,223,0.0,2.0,90,0.21,,,0.62,,2013-06-01 04:33:00,
2013-05-31 23:42:00,58.0,55.0,29.58,SE,143,0.0,2.0,90,0.22,,,0.64,,2013-06-01 04:42:00,
2013-05-31 23:53:00,58.0,55.0,29.58,SE,143,0.0,2.0,90,0.22,,,0.64,,2013-06-01 04:53:00,